COSMOS 1275 DEB, 12751

Orbit data source: Space-Track

COSMOS 1275 DEB, 12751 is space debris in LEO originally from a launch on Thu, 04 Jun 1981 UTC launched from the Plesetsk Missile And Space Complex (PKMTR). Debris objects in space refer to the collection of defunct objects orbiting the Earth. Examples of debris include non-operational satellites, rocket bodies, and fragments generated from explosions, collisions, or faulty payload assembly.

Loading next visibility...
Identifier
12751, 1981-053CU
Orbit
LEO
Country
Flag of CISCIS
Related business
Manufacturer
Unknown
Mission
Spacecraft
Bus & Motor
Unknown
Mass
Unknown
Launch date (UTC)
1981-06-04 (45 years ago)
Launch vehicle
Unknown
Launch site
Plesetsk Missile And Space Complex (PKMTR)
Object type
Payload
Rocket body
Debris
Shape & HBR
Unknown shape, 0.3 m
Radar Cross Section
Medium (>0.1 m² and <1 m²)

Expand to show TLE details & history
Last TLE update: 23 hours ago

TLE from 23 hours ago
0 COSMOS 1275 DEB
1 12751U 81053CU  25341.04104836  .00000535  00000-0  48799-3 0  9997
2 12751  82.9419 320.7816 0029493 118.2769 311.3290 13.81272635229560
Epoch: 2025-12-07T00:59Z
TLE epoch observation values (Epoch: 2025-12-07T00:59:06.578Z)
Latitude
68.30721°
Longitude
-112.01946°
Altitude
956.942 km
Speed
7.387 km/s
True Right ascension
22h 35m 16s
True Declination
68° 11' 31"
Sunlit
Object was in daylight at epoch
Visualization orbit readout
Latitude
Unknown
Longitude
Unknown
Altitude
Unknown
Speed
Unknown
Apparent Right ascension
Unknown
Apparent Declination
Unknown
Sunlit
N/A
Visualization observer readout
Local Sidereal Time
22:29:46
Azimuth
Unknown
Elevation
Unknown
Doppler factor
Unknown
Orbital elements
Apogee altitude
978.149 km
Perigee altitude
934.884 km
Semi-major axis
7,334.653 km
Eccentricity
0.00295
Inclination
82.9419°
RAAN
320.7816°
Arg. of periapsis
118.2769°
True anomaly
311.07459°
Mean anomaly
311.329°
Eccentric anomaly
311.20186°
Mean motion
3.4552 °/min
Orbital period
104.19 mins
BSTAR
0.00048799
Loading maneuver chart data...
Computing Atmospheric mass density...
Loading historical data...
Loading historical data...
Loading historical data...
Loading historical data...
Loading historical data...
Loading historical data...
Loading historical data...

Documentation

Showing up to 5 results
|